Showing default

COSMOS 1565, 15004

Orbit data source: Space-Track

COSMOS 1565, 15004 is a payload satellite owned by GUKOS (CIS) in LEO that was launched on Mon, 28 May 1984 UTC via a KOSMOS 11K65M launch vehicle from the Plesetsk Missile And Space Complex (PKMTR). Payload-class satellites include a variety of spacecraft equipped with specific instruments for various scientific and technological missions. These include communications satellites like Starlink; space stations such as the ISS; scientific satellites like the Hubble; Earth observation satellites from companies like Planet Labs, Umbra, and HawkEye 360; GPS; miniature CubeSats for education and research; and military/defense satellites.

Loading next visibility...
Identifier
15004, 1984-052G
Orbit
LEO
Country
Flag of CISCIS
Related business
Manufacturer
NPO PM
Mission
Spacecraft
Bus & Motor
STRELA-1 11F625, Unknown motor
Mass
60 kg wet, 60 kg dry
Launch date (UTC)
1984-05-28 (42 years ago)
Launch vehicle
KOSMOS 11K65M
Launch site
Plesetsk Missile And Space Complex (PKMTR)
Object type
Payload
Rocket body
Debris
Shape & HBR
Unknown
Radar Cross Section
Medium (>0.1 m² and <1 m²)

Expand to show TLE details & history
Last TLE update: 7 hours ago

TLE from 7 hours ago
0 COSMOS 1565
1 15004U 84052G   26127.53111170 -.00000013  00000-0  19802-4 0  9995
2 15004  74.0103 160.2479 0044268 285.9446 226.6110 12.55463038922040
Epoch: 2026-05-07T12:44Z
TLE epoch observation values (Epoch: 2026-05-07T12:44:48.050Z)
Latitude
26.68775°
Longitude
-84.5692°
Altitude
1,468.359 km
Speed
7.12 km/s
True Right ascension
22h 08m 01s
True Declination
26° 33' 45"
Sunlit
Object was in daylight at epoch
Visualization orbit readout
Latitude
Unknown
Longitude
Unknown
Altitude
Unknown
Speed
Unknown
Apparent Right ascension
Unknown
Apparent Declination
Unknown
Sunlit
N/A
Visualization observer readout
Local Sidereal Time
03:56:55
Azimuth
Unknown
Elevation
Unknown
Doppler factor
Unknown
Orbital elements
Apogee altitude
1,474.165 km
Perigee altitude
1,404.95 km
Semi-major axis
7,817.695 km
Eccentricity
0.00443
Inclination
74.0103°
RAAN
160.2479°
Arg. of periapsis
285.9446°
True anomaly
226.24376°
Mean anomaly
226.611°
Eccentric anomaly
226.42724°
Mean motion
3.13997 °/min
Orbital period
114.65 mins
BSTAR
0.000019802
Loading maneuver chart data...
Computing Atmospheric mass density...
Loading historical data...
Loading historical data...
Loading historical data...
Loading historical data...
Loading historical data...
Loading historical data...
Loading historical data...

Documentation

Showing up to 5 results
|